Regional Weather Roundup
Issued by NWS

Home | Current Version | Previous Version | Text Only | Print | Product List | Glossary Off
Versions: 1 2 3 4 5 6 7 8 9 10 11 12 13 14 15 16 17 18 19 20 21 22 23 24 25 26 27 28 29 30 31 32 33 34 35 36 37 38 39 40 41 42 43 44 45 46 47 48 49 50

000
ASUS43 KLMK 281010
RWRKY
KENTUCKY REGIONAL WEATHER ROUNDUP
NATIONAL WEATHER SERVICE LOUISVILLE KY
500 AM EST SAT FEB 28 2015

NOTE "FAIR" INDICATES FEW OR NO CLOUDS BELOW 12,000 FEET
WITH NO SIGNIFICANT WEATHER AND/OR OBSTRUCTIONS TO VISIBILITY.

KYZ001>023-026-027-061>063-070>075-281100-
WESTERN AND SOUTH CENTRAL KENTUCKY

CITY           SKY/WX    TMP DP  RH WIND       PRES   REMARKS
PADUCAH        CLOUDY    20  10  65 NE10      30.61R WCI   9
HENDERSON      CLOUDY    19   9  63 NE7       30.63S WCI  10
OWENSBORO      MOCLDY    20   9  62 NE9       30.62F WCI   9
HOPKINSVILLE   CLOUDY    22  13  67 NE7       30.57S WCI  14
BOWLING GREEN  CLOUDY    22   9  57 NE8       30.60S WCI  12
GLASGOW        CLOUDY    21  11  64 NE7       30.58F WCI  13
$$

KYZ024-025-028>034-038-045-046-053-281100-
NORTH CENTRAL KENTUCKY

CITY           SKY/WX    TMP DP  RH WIND       PRES   REMARKS
LOUISVILLE/SDF PTCLDY    19   4  51 E7        30.66R WCI  10
LOUISVILLE/LOU PTCLDY    18   3  52 NE6       30.66R WCI  10
FORT KNOX      CLOUDY    18   5  56 NE6       30.60R WCI  10
$$

KYZ035>037-039>044-047>052-055>060-089>105-281100-
NORTHEAST KENTUCKY

CITY           SKY/WX    TMP DP  RH WIND       PRES   REMARKS
LEXINGTON      CLOUDY    16   4  59 E12       30.61F WCI   3
COVINGTON      CLOUDY    12   0  58 E3        30.66R
FRANKFORT        N/A     16   3  56 E8        30.62F WCI   5
$$

KYZ054-064>069-076>088-106>120-281100-
SOUTHEAST KENTUCKY

CITY           SKY/WX    TMP DP  RH WIND       PRES   REMARKS
JACKSON        CLOUDY    18   6  59 VRB3      30.59R
LONDON         MOCLDY    21   7  54 NE6       30.57S WCI  13
SOMERSET       MOCLDY    19   9  63 E5        30.60S WCI  13
MIDDLESBORO    CLOUDY    21  14  73 CALM      30.57S
MONTICELLO     CLOUDY    21  10  62 E7        30.60R WCI  12
$$



USA.gov is the U.S. government's official web portal to all federal, state and local government web resources and services.